Regional Weather Roundup
Issued by NWS Newport/Morehead, NC

Current Version | Previous Version | Text Only | Print | Product List | Glossary On
Versions: 1 2 3 4 5 6 7 8 9 10 11 12 13 14 15 16 17 18 19 20 21 22 23 24 25 26 27 28 29 30 31 32 33 34 35 36 37 38 39 40 41 42 43 44 45 46 47 48 49 50
000
ASUS42 KMHX 310710
RWRMHX
WEATHER ROUNDUP FOR EASTERN NORTH CAROLINA
NATIONAL WEATHER SERVICE NEWPORT/MOREHEAD CITY NC
300 AM EDT THU JUL 31 2014

NOTE: "FAIR" INDICATES FEW OR NO CLOUDS BELOW 12,000 FEET
WITH NO SIGNIFICANT WEATHER AND/OR OBSTRUCTIONS TO VISIBILITY

NCZ015>017-031-032-045>047-102-103-310800-
NORTH COAST

CITY           SKY/WX    TMP DP  RH WIND       PRES   REMARKS
EDENTON        MOCLDY    72  64  76 SE6       30.09R
ELIZABETH CITY PTCLDY    69  62  78 CALM      30.09S
KITTY HAWK     PTSUNNY   72  62  71 SE3       30.08R
MANTEO         NOT AVBL

$$

NCZ045>047-081-094-103-104-310800-
CENTRAL COAST

CITY           SKY/WX    TMP DP  RH WIND       PRES   REMARKS
FRISCO         CLOUDY    73  64  73 E6        30.07F
SWANQUARTER      N/A     68 N/A N/A NE3       30.03F

$$

NCZ095-097-098-100-101-310800-
SOUTHERN COAST

CITY           SKY/WX    TMP DP  RH WIND       PRES   REMARKS
BEAUFORT       MOCLDY    72  68  87 CALM      30.06F
CEDAR ISLAND     N/A     77 N/A N/A E9G17     30.09F
JACKSONVILLE   PTCLDY    73  68  84 E6        30.06S
NEWPORT        NOT AVBL
PINEY ISLAND   CLOUDY    78  69  73 E10       30.06F
WILMINGTON     PTCLDY    70  68  93 CALM      30.06R


$$

NCZ011>013-027>030-043-044-078>080-089-090>093-098-310800-
COASTAL PLAIN

CITY           SKY/WX    TMP DP  RH WIND       PRES   REMARKS
AHOSKIE        PTCLDY    63  61  93 CALM      30.09S
CLINTON        MOCLDY    70  68  94 CALM      30.08S
ELIZABETHTOWN  CLOUDY    70  67  89 CALM      30.07S
GOLDSBORO      CLOUDY    69  68  98 CALM      30.07S
GREENVILLE     CLOUDY    68  64  88 CALM      30.09F
HAVELOCK       MOCLDY    71  67  87 CALM      30.08S
KENANSVILLE    MOCLDY    66  64  94 CALM      30.08S
KINSTON        CLOUDY    67  65  94 CALM      30.09S
NEW BERN       MOCLDY    71  67  87 CALM      30.08S
RICHLANDS      PTCLDY    66  63  88 CALM      30.07S
ROANOKE RAPIDS NOT AVBL
ROCKY MOUNT    CLOUDY    66  64  93 CALM      30.09R
WASHINGTON     CLOUDY    67  63  88 CALM      30.08F
WHITEVILLE     PTCLDY    68  66  94 CALM      30.06S

$$

AMZ130-135-150-152-154-156-158-170-250-252-270-ANZ085-086-088-633-658-670-310800-
MARINE OBSERVATIONS

STATION/POSITION TIME  TEMP    WIND        PRES    WAVE   SWELL
                       AIR SEA DIR/SP/G            HT/PER HT/PER
                 (UTC) (F)     (DEG/KT/KT) (MB)    (FT/S) (FT/S)
CHESAPEAKE LIGHT NOT AVBL
BUOY 44014       0700   75 78  130/  8/ 10 1018.5    2/ 8   2/ 8
DUCK             0700   74 76  140/  9/ 12 1018.0
2E DUCK          0700                        N/A     2/ 8
OREGON INLET     0700   74 79  100/  5/  7 1018.6
BUOY 44095       0700      78                N/A     3/ 7
20E OREGON INLET NOT AVBL
HATTERAS CG      0700   74 80   80/  4/  5 1018.7
DIAMOND BUOY     0700          VRB 10/ 12  1018.1    4/ 7   3/ 7
CAPE LOOKOUT     0600   79      90/ 11/ 12 1017.9
BEAUFORT LAB     0700   74 82   10/  4/  4 1017.3
30 SE NEW RIVER  0700   80 81   90/ 14/ 16 1017.8    3/ 7   2/ 7
5 SE WRIGHTSVILL 0600   77 81  100/ 12/ 14   N/A
BUOY 41002       0647   80 80  350/  4/  4 1016.8    4/ 6   3/ 6
BUOY 41004       0700   82 83   90/ 12/ 14 1015.5    4/ 6   3/ 6

$$



USA.gov is the U.S. government's official web portal to all federal, state and local government web resources and services.